This is the latest recevied weather packets stored in our database for station/object WE1C. If no packets are shown the sender has not sent any weather packets the latest 10 day(s).
| Time | Temp. | Humidity | Pressure | Rain* | Wind** | Luminosity | Snow |
|---|---|---|---|---|---|---|---|
| 1788539291 | 25.56° C | 68% | 1038.7 hPa | 0 mm | - | 765 W/m² | - |
| 1788538987 | 25.56° C | 67% | 1038.5 hPa | 0 mm | - | 772 W/m² | - |
| 1788538681 | 25° C | 70% | 1038.7 hPa | 0 mm | - | 766 W/m² | - |
| 1788538376 | 24.44° C | 70% | 1038.8 hPa | 0 mm | - | 782 W/m² | - |
| 1788538072 | 23.89° C | 79% | 1039 hPa | 0 mm | - | 840 W/m² | - |
| 1788537767 | 25.56° C | 69% | 1039.1 hPa | 0 mm | - | 133 W/m² | - |
| 1788537467 | 24.44° C | 74% | 1038.8 hPa | 0 mm | - | 852 W/m² | - |
| 1788537167 | 23.89° C | 76% | 1038.9 hPa | 0 mm | - | 198 W/m² | - |
| 1788536865 | 23.89° C | 73% | 1039 hPa | 0 mm | - | 107 W/m² | - |
| 1788536560 | 24.44° C | 76% | 1039.3 hPa | 0 mm | - | 196 W/m² | - |
| 1788536256 | 25° C | 72% | 1039.1 hPa | 0 mm | - | 193 W/m² | - |
| 1788535951 | 25° C | 72% | 1039.3 hPa | 0 mm | - | 873 W/m² | - |
| 1788535647 | 23.89° C | 75% | 1039.3 hPa | 0 mm | - | 877 W/m² | - |
| 1788535342 | 24.44° C | 73% | 1039.2 hPa | 0 mm | - | 377 W/m² | - |
| 1788535037 | 24.44° C | 74% | 1039.2 hPa | 0 mm | - | 239 W/m² | - |
| 1788534736 | 24.44° C | 73% | 1039.3 hPa | 0 mm | - | 559 W/m² | - |
| 1788534432 | 25° C | 72% | 1039.2 hPa | 0 mm | - | 460 W/m² | - |
| 1788534127 | 24.44° C | 72% | 1039.4 hPa | 0 mm | - | 705 W/m² | - |
| 1788533825 | 24.44° C | 72% | 1039.1 hPa | 0 mm | - | 760 W/m² | - |
| 1788533521 | 25° C | 73% | 1039.3 hPa | 0 mm | - | 723 W/m² | - |
| 1788533216 | 24.44° C | 72% | 1039.1 hPa | 0 mm | - | 718 W/m² | - |
| 1788532912 | 24.44° C | 79% | 1039.4 hPa | 0 mm | - | 693 W/m² | - |
| 1788532607 | 23.89° C | 75% | 1039.2 hPa | 0 mm | - | 711 W/m² | - |
| 1788532304 | 23.89° C | 82% | 1039.3 hPa | 0 mm | - | 694 W/m² | - |
| 1788532000 | 23.89° C | 78% | 1039.4 hPa | 0 mm | - | 688 W/m² | - |
* Rain latest hour (hover to see other rain measurements)
** Current wind speed in m/s (hover to see current wind gust speed)